Imperial, NE

4:53 AM MDT on May 27, 2017 (GMT -0600)
Imperial Municipal

Weather History for KIML - June, 2013

Change the Weather History Date:

Saturday, June 8, 2013

  Actual Average Record
Temperature  
Mean Temperature 67 °F 68 °F  
Max Temperature 82 °F 81 °F 104 °F (1985)
Min Temperature 51 °F 54 °F 38 °F (1906)
Degree Days  
Heating Degree Days 0 2  
Month to date heating degree days 24 18  
Since 1 June heating degree days 24 18  
Cooling Degree Days 2 4  
Month to date cooling degree days 10 30  
Year to date cooling degree days 78 74  
Since 1 June cooling degree days 10 30  
Growing Degree Days 18 (Base 50)    
Moisture  
Dew Point 51 °F    
Average Humidity 51    
Maximum Humidity 78    
Minimum Humidity 23    
Precipitation  
Precipitation 0.02 in 0.13 in 2.27 in (1974)
Sea Level Pressure  
Sea Level Pressure 29.74 in    
Wind  
Wind Speed 12 mph (North)    
Max Wind Speed 35 mph    
Max Gust Speed 46 mph    
Visibility 10 miles    
Events Rain , Thunderstorm    
T = Trace of Precipitation, MM = Missing Value Source: NWS Daily Summary

Daily Weather History Graph

Daily Weather History Graph

Search for Another Location

Airport or City:

Trip Planner

Search our weather history database for the weather conditions in past years. The results will help you decide how hot, cold, wet, or windy it might be!

Date:

Astronomy

Jun. 08, 2013 Rise Set
Actual Time 5:15 AM MDT 8:15 PM MDT
Civil Twilight 4:42 AM MDT 8:48 PM MDT
Nautical Twilight 4:01 AM MDT 9:30 PM MDT
Astronomical Twilight 3:12 AM MDT 10:19 PM MDT
Moon 5:25 AM MDT (6/8) 8:19 PM MDT (6/8)
Length of Visible Light 16h 05m
Length of Day
14h 59m
New Moon, 0% of the Moon is Illuminated
Jun 8
New Moon
Jun 16
First Quarter
Jun 23
Full
Jun 29
Last Quarter
Jul 8
New

Hourly Weather History & Observations

Time (MDT) Temp. Dew Point Humidity Pressure Visibility Wind Dir Wind Speed Gust Speed Precip Events Conditions
12:53 AM 66.0 °F 55.0 °F 68% 29.70 in 10.0 mi SSE 9.2 mph - 0.00 in   Partly Cloudy
1:53 AM 64.0 °F 55.9 °F 75% 29.67 in 10.0 mi SSE 11.5 mph - N/A   Clear
2:53 AM 63.0 °F 55.9 °F 78% 29.65 in 10.0 mi SSE 10.4 mph - N/A   Clear
3:53 AM 64.0 °F 55.0 °F 73% 29.61 in 10.0 mi South 10.4 mph - N/A   Clear
4:53 AM 64.0 °F 54.0 °F 70% 29.57 in 10.0 mi South 11.5 mph - N/A   Clear
5:53 AM 64.9 °F 52.0 °F 63% 29.57 in 10.0 mi Variable 5.8 mph 21.9 mph N/A   Partly Cloudy
6:53 AM 66.9 °F 52.0 °F 59% 29.57 in 10.0 mi Calm Calm - N/A   Clear
7:53 AM 63.0 °F 55.0 °F 75% 29.63 in 10.0 mi ENE 11.5 mph - N/A   Partly Cloudy
8:53 AM 66.9 °F 55.0 °F 66% 29.68 in 10.0 mi North 15.0 mph - N/A   Mostly Cloudy
9:53 AM 64.9 °F 55.0 °F 70% 29.73 in 10.0 mi North 16.1 mph 25.3 mph 0.00 in Thunderstorm Mostly Cloudy
10:09 AM 62.6 °F 55.4 °F 77% 29.79 in 7.0 mi NNE 17.3 mph 25.3 mph 0.01 in Rain Light Rain
10:53 AM 63.0 °F 55.9 °F 78% 29.73 in 10.0 mi NNE 16.1 mph - 0.01 in Rain Light Rain
11:53 AM 71.1 °F 54.0 °F 55% 29.74 in 10.0 mi NNW 16.1 mph 26.5 mph 0.00 in   Partly Cloudy
12:53 PM 73.9 °F 52.0 °F 46% 29.74 in 10.0 mi North 26.5 mph 33.4 mph N/A   Partly Cloudy
1:53 PM 75.9 °F 50.0 °F 40% 29.74 in 10.0 mi NNW 16.1 mph 25.3 mph N/A   Partly Cloudy
2:53 PM 78.1 °F 51.1 °F 39% 29.73 in 10.0 mi NNW 12.7 mph 24.2 mph N/A   Partly Cloudy
3:53 PM 82.0 °F 41.0 °F 23% 29.72 in 10.0 mi NW 23.0 mph 32.2 mph N/A   Partly Cloudy
4:53 PM 75.0 °F 50.0 °F 41% 29.74 in 8.0 mi NNE 29.9 mph 46.0 mph N/A   Mostly Cloudy
5:00 PM 73.4 °F 48.2 °F 41% 29.83 in 8.0 mi NNE 32.2 mph 43.7 mph N/A   Scattered Clouds
5:53 PM 71.1 °F 45.0 °F 39% 29.80 in 10.0 mi North 15.0 mph - N/A   Partly Cloudy
6:11 PM 66.2 °F 51.8 °F 60% 29.89 in 9.0 mi NW 12.7 mph 20.7 mph 0.00 in Rain Light Rain
6:53 PM 68.0 °F 52.0 °F 56% 29.81 in 10.0 mi NNW 11.5 mph - 0.01 in   Clear
7:53 PM 66.0 °F 48.9 °F 54% 29.85 in 10.0 mi NNE 9.2 mph - N/A   Clear
8:53 PM 60.1 °F 48.0 °F 64% 29.87 in 10.0 mi Calm Calm - N/A   Clear
9:53 PM 55.9 °F 46.9 °F 72% 29.90 in 10.0 mi Calm Calm - N/A   Clear
10:53 PM 55.0 °F 46.9 °F 74% 29.94 in 10.0 mi WSW 6.9 mph - N/A   Clear
11:53 PM 54.0 °F 46.9 °F 77% 29.91 in 10.0 mi WSW 5.8 mph - N/A   Clear